Find KUIPER-00299

NORAD ID: 68864 Int'l Des: 2026-095A Owner: kuiper Country: USA Constellation: kuiper operational
LEOCIRCULAR

实时位置

正在加载3D地球...

关于 KUIPER-00299

正在加载描述...

即将过境

Passes for default location (London). Set your location on the main map for personalized predictions.

高度历史

Loading altitude history...

两行轨道根数

1 68864U 26095A 26120.66670139 -.00009135 00000-0 -24324-3 0 9991
2 68864 51.8715 112.1842 0009213 125.7512 41.8794 15.36299163 1300
Epoch: Apr 30, 2026 • Age: 32 hours

当前状态

高度 480.1 km
速度 7.62 km/s
星下点 -51.77°S, 168.26°E
类型 internet

Most Searched